{"data":{"norad_id":63465,"intl_designator":"2025-070F","name":"STARLINK-33685","alt_names":[],"object_type":"PAYLOAD","status":"ACTIVE","operator":null,"country":"US","launch_date":"2025-04-06","launch_site_code":"AFETR","launch_vehicle":null,"mission":null,"orbit_class":"UNKNOWN","rcs_meters":null,"size_class":null,"mass_kg":null,"dimensions":null,"purposes":["comms"],"wikipedia_slug":null,"has_3d_model":false,"image_url":null,"decayed_at":null,"tle_current":{"epoch":"2026-09-20T08:06:25.340256Z","epoch_age_seconds":169747,"freshness":"FRESH","line1":"1 63465U 25070F   26263.33779329  .00022742  00000+0  83268-3 0  9996","line2":"2 63465  43.0008 240.6807 0001233 270.0211  90.0499 15.27608617 82745","mean_motion":15.27608617,"eccentricity":0.0001233,"inclination_deg":43.0008,"raan_deg":240.6807,"arg_perigee_deg":270.0211,"mean_anomaly_deg":90.0499,"bstar":0.00083268,"rev_number":8274,"period_min":94.264982795655,"perigee_km":482.11743410417,"apogee_km":483.80938146472,"semimajor_km":6861.1004077844,"source":"CELESTRAK","updated_at":"2026-09-21T09:00:35.008028Z"}}}